Wind_Speed
17 15 14 12 12 12 12 12 11 10 9 9 9 9 9 8 7 7 7 8 8 8 8 8 8 8 8 7 7 7 7 8 8 9 10 10 10 10 10 10 9 8
18 17 15 14 14 14 14 14 13 12 11 11 10 10 10 9 7 7 7 7 7 7 7 7 8 8 7 7 7 7 7 7 8 8 9 10 10 10 11 10 10 9
19 18 17 16 15 15 15 15 15 14 13 12 11 11 10 9 8 8 7 7 7 6 6 7 7 7 7 7 7 7 8 8 8 7 8 9 10 11 11 11 11 10
20 19 18 17 17 17 16 16 15 15 14 12 12 11 11 10 10 9 8 8 7 7 7 7 7 7 7 7 7 7 7 7 7 7 8 8 9 10 11 11 11 11
20 20 19 19 18 18 17 16 15 15 14 13 13 12 11 11 11 11 10 9 8 8 8 7 7 7 6 7 7 7 7 6 7 7 8 8 9 10 10 11 11 11
21 21 21 21 20 20 18 17 16 16 15 14 14 13 12 12 12 12 11 10 10 9 9 9 8 8 7 6 6 6 6 6 6 6 7 8 9 9 9 9 10 10
21 21 22 22 22 21 20 18 18 17 16 15 15 14 13 13 13 13 13 12 12 11 11 10 10 9 8 7 7 7 7 6 6 6 6 6 7 8 9 9 9 9
21 21 22 22 23 23 21 20 19 18 17 16 15 15 14 13 13 14 14 14 14 13 13 12 11 11 10 9 8 7 7 6 6 5 5 5 5 6 8 8 8 8
22 22 22 23 23 23 23 21 20 20 19 17 16 16 15 15 14 15 15 15 15 14 14 13 13 12 11 10 10 9 8 7 7 6 5 5 5 5 6 6 7 7
23 23 23 23 23 23 23 23 22 21 20 19 19 18 17 16 15 15 15 15 15 15 14 14 14 14 13 12 11 11 10 9 8 7 6 6 6 6 5 5 6 6
25 25 24 24 23 23 23 23 24 23 23 22 21 20 19 18 17 16 16 15 15 15 15 14 14 14 14 14 13 12 11 11 10 9 8 8 8 7 7 6 6 7
27 26 25 25 24 24 23 23 24 24 24 24 23 22 21 19 18 17 16 16 16 16 16 15 15 15 15 15 14 14 13 12 11 11 10 9 9 9 9 8 8 8
29 28 27 26 25 25 24 24 24 25 25 25 25 25 24 22 21 19 18 18 17 18 17 17 16 16 15 15 15 14 14 13 13 12 11 11 10 10 9 9 9 10
30 29 28 27 26 26 25 24 24 24 25 26 26 26 25 24 23 22 21 20 19 19 19 19 19 18 17 16 15 15 15 14 14 14 13 12 12 11 11 10 10 11
31 30 29 28 27 26 26 25 24 24 24 25 26 27 26 25 25 24 24 23 21 20 20 21 20 19 18 18 17 17 17 16 16 16 15 15 14 13 13 12 12 12
31 29 29 29 27 27 27 26 26 25 25 26 26 27 27 27 26 26 25 25 23 23 22 22 22 21 20 19 19 18 18 19 18 18 17 17 17 16 15 15 14 14
30 29 30 30 28 27 27 27 27 27 27 27 27 27 28 28 28 27 26 26 25 25 24 24 23 23 22 21 21 20 20 21 21 20 20 19 19 18 17 17 17 17
31 30 32 32 31 29 29 29 29 29 29 28 28 28 28 28 28 27 27 27 27 26 26 26 25 24 24 24 23 23 22 23 23 23 23 22 21 21 20 20 20 20
32 34 35 34 33 32 32 32 31 31 30 29 29 29 29 28 27 26 26 26 26 26 26 26 26 25 26 26 26 25 24 25 24 24 25 25 24 24 23 22 22 22
27 33 36 35 33 33 34 33 32 31 32 32 31 31 29 28 28 27 27 27 26 26 25 25 25 25 25 26 26 25 25 25 25 25 26 26 26 26 25 25 24 24
16 22 28 31 33 34 35 33 31 31 31 33 34 33 32 30 30 29 29 29 28 27 26 25 25 25 25 25 25 25 25 25 25 25 25 26 26 26 26 26 25 24
11 15 20 25 29 32 32 31 31 33 33 33 33 33 32 32 31 31 31 30 30 28 27 26 26 26 27 26 26 26 25 25 25 26 26 25 25 24 24 24 23 22
10 11 14 17 21 26 28 28 31 33 33 33 32 30 30 31 31 32 32 31 30 30 29 29 29 29 29 28 28 28 27 27 27 26 27 26 25 24 24 23 22 22
14 13 12 11 14 20 25 27 29 29 28 29 29 27 27 28 29 30 30 30 31 31 32 32 33 32 32 31 30 30 30 30 29 28 27 27 25 24 23 23 23 22
17 18 17 15 15 18 22 22 21 21 22 24 26 26 25 24 24 25 26 28 29 30 32 33 34 34 34 33 32 31 32 32 31 30 29 28 27 26 25 25 24 24
18 19 19 19 18 18 18 16 14 14 16 20 24 25 24 22 21 21 22 23 24 26 28 30 32 34 34 34 33 32 32 33 33 32 31 31 31 30 29 28 27 27
Wind_Direction
209 212 212 210 207 204 200 198 196 196 198 200 197 197 199 201 203 204 203 203 206 207 209 210 208 209 212 214 217 220 221 220 219 220 221 219 215 215 218 222 226 231
210 211 210 208 208 208 207 204 201 198 199 202 203 203 202 198 198 204 203 200 204 207 209 213 212 212 216 216 215 221 225 225 220 220 223 222 218 218 219 222 226 231
211 211 208 207 208 210 211 209 205 203 202 204 206 207 204 198 197 202 203 201 203 206 211 217 217 213 214 214 215 220 224 226 223 222 226 225 222 222 223 224 225 228
212 212 209 207 208 210 213 213 209 207 207 208 210 210 208 204 201 202 202 202 203 204 207 215 219 216 213 214 213 212 216 221 220 222 225 225 224 226 227 228 227 227
215 214 211 209 209 210 212 213 211 210 210 212 213 212 211 209 206 204 202 202 205 206 204 206 213 216 214 217 216 208 208 211 213 218 224 224 224 227 230 231 230 229
216 215 214 212 211 212 211 211 211 210 211 213 214 213 212 211 210 208 204 201 204 207 204 201 205 208 208 214 219 215 211 207 207 215 221 223 224 226 229 230 230 231
216 216 216 215 215 215 213 212 211 210 211 213 213 213 212 210 209 210 208 204 203 205 205 202 204 205 203 206 214 218 215 208 205 212 217 217 221 225 227 227 229 233
216 216 217 217 218 218 216 215 214 213 214 215 214 214 213 210 209 211 211 209 205 204 204 205 208 210 207 207 211 215 217 211 203 206 215 214 215 225 229 228 230 235
218 217 218 218 220 220 219 218 217 217 217 217 216 217 216 213 211 211 212 212 210 208 206 207 210 213 213 212 213 215 217 218 212 208 215 218 219 226 228 226 228 234
220 218 219 220 221 221 221 220 219 219 219 218 218 219 218 217 216 215 214 213 214 214 213 213 215 216 217 217 218 219 219 221 221 216 217 221 224 226 223 220 221 230
221 221 220 222 222 223 222 221 221 221 221 220 220 221 221 220 219 219 219 218 217 218 218 219 221 223 223 222 221 223 221 222 224 222 223 225 228 230 229 225 223 227
222 222 221 222 224 224 223 222 222 223 223 222 222 222 223 223 223 222 223 223 223 224 223 223 225 227 227 227 226 226 226 225 225 224 225 228 232 235 236 235 235 237
221 222 222 221 223 225 224 223 223 223 224 224 224 225 224 225 226 225 225 225 226 228 229 228 229 229 229 231 231 231 230 228 227 226 226 228 231 234 237 241 244 245
222 222 223 222 223 226 226 226 226 226 225 225 225 226 227 228 228 228 227 227 227 230 232 234 234 233 232 234 236 238 237 234 232 230 229 230 231 233 235 238 242 245
224 221 223 223 223 226 228 227 228 229 229 228 227 227 228 230 231 232 231 230 229 230 233 236 238 237 236 236 237 240 242 242 239 237 235 235 235 236 237 238 240 241
226 223 225 227 225 225 228 229 229 230 231 231 231 229 228 229 230 232 233 234 233 233 234 237 238 239 239 239 239 240 241 243 244 244 242 241 239 239 240 240 240 241
228 225 227 230 228 227 229 230 231 232 232 233 234 233 232 230 229 229 231 233 234 235 236 238 240 241 240 240 241 241 242 242 243 244 245 245 244 244 243 244 244 244
232 228 228 230 229 228 230 232 233 234 235 235 235 236 235 234 233 232 230 230 232 233 235 238 240 242 242 242 241 241 243 244 244 244 245 246 247 247 247 248 249 250
232 228 228 228 228 229 231 233 233 235 238 240 240 239 238 237 238 237 235 233 231 231 233 234 236 239 241 242 242 241 243 244 245 246 246 247 249 250 251 252 253 254
233 229 228 229 230 232 234 234 233 234 239 243 244 243 241 238 239 240 241 239 235 232 231 233 233 235 237 240 241 242 243 244 245 246 247 248 250 251 253 254 256 257
235 229 229 231 233 235 236 238 237 237 240 244 244 243 240 238 239 240 241 241 238 234 232 232 233 234 235 236 239 240 242 245 247 248 249 250 251 252 254 256 257 259
231 229 229 232 234 236 238 239 239 240 242 244 246 244 239 237 238 240 242 241 238 237 236 235 236 236 236 237 238 240 242 244 247 250 252 252 252 253 254 256 257 259
217 225 231 236 239 240 240 240 240 240 241 241 242 243 241 240 241 242 244 244 242 241 241 240 240 240 240 240 240 242 243 244 245 248 250 252 252 252 253 254 254 254
207 207 215 230 242 243 240 239 238 239 240 240 239 239 241 243 244 244 246 247 248 248 248 247 246 246 244 244 244 246 246 245 246 247 248 250 250 250 250 250 250 250
216 212 212 215 223 230 233 232 227 228 236 241 241 239 239 240 244 248 251 252 252 252 252 252 251 250 248 247 248 250 249 247 246 247 248 249 249 248 248 248 249 249
222 223 224 224 224 229 234 232 220 215 225 233 235 237 238 240 246 252 254 255 255 255 254 254 253 252 251 251 252 253 253 250 247 247 248 249 250 251 251 251 252 252
Height
3234 3235 3237 3238 3240 3241 3242 3243 3244 3245 3246 3247 3248 3248 3249 3250 3251 3252 3252 3253 3253 3254 3255 3255 3256 3256 3257 3257 3257 3258 3258 3259 3259 3260 3260 3261 3261 3262 3262 3263 3263 3264
3233 3235 3236 3238 3239 3241 3242 3243 3244 3245 3246 3247 3247 3248 3248 3249 3250 3251 3252 3253 3253 3254 3255 3255 3256 3256 3257 3257 3257 3258 3258 3258 3259 3259 3260 3260 3261 3261 3262 3262 3263 3264
3232 3234 3236 3238 3239 3240 3241 3242 3243 3244 3245 3246 3247 3247 3248 3249 3249 3250 3251 3252 3253 3254 3254 3255 3256 3256 3257 3257 3257 3257 3258 3258 3259 3259 3259 3260 3260 3261 3261 3262 3262 3263
3232 3233 3235 3237 3238 3239 3240 3242 3243 3244 3245 3246 3246 3247 3247 3248 3249 3250 3250 3251 3252 3253 3254 3255 3255 3256 3256 3257 3257 3257 3258 3258 3258 3259 3259 3259 3259 3260 3260 3261 3262 3262
3231 3232 3234 3235 3237 3238 3239 3241 3242 3243 3244 3245 3246 3246 3247 3247 3248 3249 3250 3251 3251 3252 3253 3254 3255 3256 3256 3256 3257 3257 3257 3257 3258 3258 3258 3259 3259 3259 3260 3260 3261 3261
3229 3231 3232 3234 3235 3236 3238 3239 3241 3242 3243 3244 3244 3245 3246 3247 3248 3248 3249 3250 3251 3252 3252 3253 3254 3255 3255 3256 3256 3256 3256 3257 3257 3257 3258 3258 3258 3259 3259 3260 3260 3260
3228 3229 3231 3232 3234 3235 3236 3238 3239 3240 3241 3242 3243 3244 3245 3246 3247 3247 3248 3248 3249 3250 3251 3252 3253 3253 3254 3255 3255 3256 3256 3256 3256 3256 3257 3257 3258 3258 3258 3259 3259 3260
3226 3227 3229 3230 3232 3233 3235 3236 3238 3239 3240 3241 3242 3243 3244 3245 3245 3246 3247 3247 3248 3249 3250 3251 3252 3252 3253 3254 3254 3255 3255 3255 3255 3255 3256 3256 3257 3257 3258 3258 3258 3259
3224 3225 3226 3228 3230 3231 3233 3234 3236 3237 3238 3240 3241 3241 3242 3243 3244 3245 3246 3246 3247 3248 3249 3250 3250 3251 3252 3252 3253 3254 3254 3254 3255 3255 3255 3255 3256 3256 3257 3257 3258 3258
3222 3223 3224 3225 3227 3229 3231 3232 3234 3235 3236 3238 3239 3240 3241 3241 3242 3243 3244 3245 3246 3247 3248 3248 3249 3250 3251 3251 3252 3252 3253 3253 3254 3254 3254 3254 3255 3255 3255 3256 3256 3257
3219 3220 3222 3223 3225 3227 3229 3230 3231 3232 3234 3235 3237 3238 3239 3240 3241 3242 3243 3244 3245 3246 3246 3247 3248 3249 3249 3250 3251 3251 3252 3252 3253 3253 3253 3253 3254 3254 3254 3255 3255 3255
3216 3218 3219 3221 3223 3224 3226 3227 3229 3230 3232 3233 3235 3236 3237 3238 3239 3240 3241 3242 3244 3244 3245 3246 3246 3247 3248 3249 3249 3250 3250 3251 3251 3252 3252 3252 3253 3253 3253 3253 3254 3254
3212 3215 3217 3218 3220 3222 3223 3225 3226 3228 3229 3231 3232 3233 3235 3236 3237 3238 3239 3240 3242 3243 3244 3245 3245 3246 3247 3248 3248 3249 3249 3250 3250 3251 3251 3251 3252 3252 3252 3252 3253 3253
3210 3212 3214 3215 3218 3220 3221 3223 3224 3226 3227 3228 3229 3230 3232 3234 3235 3236 3236 3237 3239 3240 3242 3243 3244 3244 3245 3246 3247 3248 3248 3249 3249 3249 3250 3250 3250 3250 3251 3251 3251 3252
3206 3208 3211 3212 3214 3217 3219 3221 3222 3224 3225 3226 3227 3228 3229 3231 3232 3233 3234 3235 3236 3238 3239 3241 3242 3243 3244 3244 3245 3246 3246 3247 3247 3248 3248 3248 3249 3249 3249 3249 3250 3250
3201 3205 3208 3210 3212 3214 3216 3218 3219 3221 3222 3224 3225 3226 3226 3227 3228 3230 3231 3232 3234 3235 3236 3238 3239 3241 3242 3242 3243 3243 3244 3245 3245 3246 3246 3246 3247 3247 3247 3248 3248 3248
3200 3204 3206 3207 3209 3211 3213 3215 3216 3217 3218 3220 3222 3223 3224 3225 3226 3227 3228 3229 3230 3232 3233 3235 3237 3238 3239 3240 3240 3241 3241 3242 3243 3244 3244 3244 3245 3245 3245 3246 3246 3246
3199 3201 3202 3204 3206 3208 3210 3211 3212 3213 3215 3217 3219 3220 3222 3223 3225 3225 3226 3226 3227 3228 3230 3231 3233 3235 3237 3237 3238 3238 3239 3239 3240 3241 3242 3242 3243 3243 3243 3244 3244 3244
3194 3196 3198 3200 3201 3203 3205 3207 3208 3210 3213 3215 3217 3219 3220 3222 3223 3224 3225 3225 3225 3225 3227 3228 3230 3232 3233 3234 3235 3236 3236 3236 3237 3238 3239 3240 3240 3241 3241 3241 3242 3242
3191 3192 3195 3197 3198 3200 3203 3205 3206 3208 3211 3213 3215 3217 3218 3220 3221 3222 3223 3223 3223 3223 3225 3226 3228 3229 3230 3231 3232 3233 3233 3233 3233 3234 3235 3236 3237 3238 3238 3239 3239 3239
3188 3191 3193 3195 3197 3199 3201 3203 3206 3208 3210 3211 3212 3213 3215 3216 3217 3218 3219 3220 3220 3221 3222 3224 3225 3227 3228 3229 3230 3230 3230 3230 3231 3231 3232 3232 3234 3235 3235 3236 3236 3236
3187 3190 3192 3194 3196 3197 3199 3202 3204 3206 3207 3207 3208 3210 3212 3213 3215 3216 3217 3218 3218 3218 3219 3221 3222 3224 3225 3226 3227 3227 3227 3227 3228 3228 3228 3229 3230 3231 3232 3233 3233 3233
3187 3188 3190 3192 3194 3195 3197 3199 3201 3202 3203 3204 3205 3207 3208 3210 3212 3213 3215 3215 3216 3216 3217 3218 3220 3221 3222 3223 3224 3224 3225 3225 3225 3225 3225 3226 3227 3228 3228 3229 3230 3230
3185 3186 3187 3190 3192 3194 3195 3197 3198 3200 3201 3203 3203 3204 3206 3207 3209 3210 3211 3212 3212 3213 3214 3216 3217 3218 3219 3220 3221 3221 3222 3222 3222 3222 3222 3223 3224 3225 3225 3225 3226 3226
3184 3184 3185 3187 3189 3191 3193 3195 3196 3197 3199 3201 3202 3203 3204 3204 3205 3207 3207 3208 3209 3210 3211 3213 3214 3215 3216 3216 3217 3218 3218 3219 3219 3219 3220 3220 3221 3221 3222 3222 3223 3223
3183 3183 3183 3185 3187 3188 3190 3192 3194 3195 3197 3199 3201 3202 3202 3202 3203 3204 3204 3205 3205 3206 3208 3209 3210 3211 3212 3212 3213 3214 3214 3215 3215 3216 3216 3217 3217 3218 3219 3219 3220 3220